Valley City, ND

8:18 PM CST on December 15, 2019 (GMT -0600)
Valley City

Weather History for KBAC - October, 2019

Change the Weather History Date:

Saturday, October 19, 2019

  Actual Average (WUND) Record (WUND)
Temperature  
Mean Temperature 45 °F -  
Max Temperature 55 °F - - (-1)
Min Temperature 35 °F - - (-1)
Degree Days  
Heating Degree Days 20    
Moisture  
Dew Point 37 °F    
Average Humidity 74    
Maximum Humidity 100    
Minimum Humidity 47    
Precipitation  
Precipitation 0.00 in - - ()
Sea Level Pressure  
Sea Level Pressure 29.63 in    
Wind  
Wind Speed 12 mph (WSW)    
Max Wind Speed 22 mph    
Max Gust Speed 26 mph    
Visibility 10 miles    
Events Rain    
Averages and records for this station are not official NWS values.
T = Trace of Precipitation, MM = Missing Value Source: NWS Daily Summary

Daily Weather History Graph

Daily Weather History Graph

Search for Another Location

Airport or City:

Astronomy

Oct. 19, 2019 Rise Set
Actual Time 7:55 AM CDT 6:37 PM CDT
Civil Twilight 7:24 AM CDT 7:08 PM CDT
Nautical Twilight 6:49 AM CDT 7:43 PM CDT
Astronomical Twilight 6:14 AM CDT 8:19 PM CDT
Moon 10:31 PM CDT (10/19) 1:45 PM CDT (10/19)
Length of Visible Light 11h 44m
Length of Day
10h 42m
Waning Gibbous, 69% of the Moon is Illuminated
Oct 19
Waning Gibbous
Oct 21
Last Quarter
Oct 27
New
Nov 4
First Quarter
Nov 12
Full

Hourly Weather History & Observations

Time (CDT) Temp. Windchill Dew Point Humidity Pressure Visibility Wind Dir Wind Speed Gust Speed Precip Events Conditions
12:15 AM 46.4 °F 40.7 °F 41.0 °F 81% 29.56 in 10.0 mi WSW 12.7 mph - N/A   Clear
12:35 AM 46.4 °F 40.7 °F 41.0 °F 81% 29.56 in 10.0 mi WSW 12.7 mph - N/A   Clear
12:55 AM 44.6 °F 38.4 °F 41.0 °F 87% 29.56 in 10.0 mi WSW 12.7 mph - N/A   Clear
1:15 AM 44.6 °F 38.4 °F 41.0 °F 87% 29.56 in 10.0 mi WSW 12.7 mph - N/A   Clear
1:35 AM 44.6 °F 39.2 °F 41.0 °F 87% 29.56 in 10.0 mi WSW 10.4 mph - N/A   Clear
1:55 AM 42.8 °F 36.6 °F 41.0 °F 93% 29.56 in 10.0 mi WSW 11.5 mph - N/A   Clear
2:15 AM 42.8 °F 36.6 °F 41.0 °F 93% 29.56 in 10.0 mi WSW 11.5 mph - N/A   Clear
2:35 AM 42.8 °F 37.5 °F 39.2 °F 87% 29.57 in 10.0 mi West 9.2 mph - N/A   Clear
2:55 AM 42.8 °F 37.0 °F 39.2 °F 87% 29.58 in 10.0 mi WSW 10.4 mph - N/A   Clear
3:15 AM 42.8 °F 36.2 °F 39.2 °F 87% 29.58 in 10.0 mi WSW 12.7 mph - N/A   Clear
3:35 AM 42.8 °F 35.8 °F 39.2 °F 87% 29.58 in 10.0 mi WSW 13.8 mph - N/A   Clear
3:55 AM 42.8 °F 35.8 °F 37.4 °F 81% 29.59 in 10.0 mi WSW 13.8 mph - N/A   Clear
4:15 AM 42.8 °F 35.8 °F 37.4 °F 81% 29.59 in 10.0 mi WSW 13.8 mph - N/A   Clear
4:35 AM 42.8 °F 36.6 °F 37.4 °F 81% 29.59 in 10.0 mi WSW 11.5 mph - N/A   Clear
4:55 AM 42.8 °F 36.2 °F 37.4 °F 81% 29.59 in 10.0 mi West 12.7 mph - N/A   Clear
5:15 AM 41.0 °F 34.3 °F 37.4 °F 87% 29.60 in 10.0 mi West 11.5 mph - N/A   Clear
5:35 AM 42.8 °F 36.6 °F 35.6 °F 76% 29.60 in 10.0 mi West 11.5 mph - N/A   Clear
5:55 AM 41.0 °F 34.3 °F 35.6 °F 81% 29.61 in 10.0 mi West 11.5 mph - N/A   Clear
6:15 AM 41.0 °F 35.2 °F 35.6 °F 81% 29.61 in 10.0 mi West 9.2 mph - N/A   Clear
6:35 AM 39.2 °F 35.0 °F 35.6 °F 87% 29.62 in 10.0 mi West 5.8 mph - N/A   Clear
6:55 AM 39.2 °F 33.0 °F 35.6 °F 87% 29.62 in 10.0 mi West 9.2 mph - N/A   Clear
7:15 AM 39.2 °F 33.6 °F 35.6 °F 87% 29.62 in 10.0 mi West 8.1 mph 15.0 mph N/A   Clear
7:35 AM 37.4 °F 33.8 °F 33.8 °F 87% 29.62 in 10.0 mi West 4.6 mph - N/A   Clear
7:55 AM 37.4 °F 33.8 °F 33.8 °F 87% 29.63 in 10.0 mi West 4.6 mph - N/A   Clear
8:15 AM 37.4 °F 31.4 °F 35.6 °F 93% 29.63 in 10.0 mi WSW 8.1 mph - N/A   Clear
8:35 AM 41.0 °F 33.9 °F 35.6 °F 81% 29.64 in 10.0 mi West 12.7 mph - N/A   Clear
8:55 AM 42.8 °F 35.8 °F 35.6 °F 76% 29.63 in 10.0 mi West 13.8 mph - N/A   Clear
9:15 AM 42.8 °F 34.8 °F 35.6 °F 76% 29.63 in 10.0 mi West 17.3 mph - N/A   Clear
9:35 AM 44.6 °F 37.2 °F 35.6 °F 71% 29.64 in 10.0 mi West 17.3 mph - N/A Rain Light Rain
9:55 AM 44.6 °F 37.8 °F 35.6 °F 71% 29.64 in 10.0 mi West 15.0 mph 21.9 mph N/A   Clear
10:15 AM 46.4 °F 38.5 °F 35.6 °F 66% 29.64 in 10.0 mi West 21.9 mph - N/A   Clear
10:35 AM 48.2 °F - 35.6 °F 62% 29.64 in 10.0 mi West 19.6 mph - N/A   Clear
10:55 AM 48.2 °F - 35.6 °F 62% 29.64 in 10.0 mi West 18.4 mph - N/A   Clear
11:15 AM 50.0 °F - 35.6 °F 58% 29.64 in 10.0 mi West 13.8 mph 20.7 mph N/A   Clear
11:35 AM 51.8 °F - 35.6 °F 54% 29.64 in 10.0 mi West 18.4 mph - N/A   Clear
11:55 AM 51.8 °F - 35.6 °F 54% 29.65 in 10.0 mi West 17.3 mph - N/A   Clear
12:15 PM 53.6 °F - 37.4 °F 54% 29.64 in 10.0 mi West 13.8 mph 24.2 mph N/A   Clear
12:35 PM 53.6 °F - 37.4 °F 54% 29.64 in 10.0 mi West 16.1 mph - N/A   Clear
12:55 PM 53.6 °F - 39.2 °F 58% 29.64 in 10.0 mi West 13.8 mph 20.7 mph N/A   Clear
1:15 PM 53.6 °F - 37.4 °F 54% 29.63 in 10.0 mi West 17.3 mph 23.0 mph N/A   Clear
1:35 PM 53.6 °F - 37.4 °F 54% 29.63 in 10.0 mi West 15.0 mph - N/A   Clear
1:55 PM 55.4 °F - 37.4 °F 51% 29.63 in 10.0 mi West 19.6 mph 26.5 mph N/A   Clear
2:15 PM 55.4 °F - 37.4 °F 51% 29.63 in 10.0 mi West 18.4 mph - N/A   Clear
2:35 PM 55.4 °F - 37.4 °F 51% 29.62 in 10.0 mi WSW 16.1 mph - N/A   Partly Cloudy
2:55 PM 55.4 °F - 37.4 °F 51% 29.62 in 10.0 mi WNW 13.8 mph 19.6 mph N/A   Clear
3:15 PM 55.4 °F - 37.4 °F 51% 29.62 in 10.0 mi West 16.1 mph 21.9 mph N/A   Clear
3:55 PM 55.4 °F - 35.6 °F 47% 29.62 in 10.0 mi West 15.0 mph 23.0 mph N/A   Clear
4:15 PM 55.4 °F - 37.4 °F 51% 29.63 in 10.0 mi West 15.0 mph - N/A   Clear
4:35 PM 53.6 °F - 35.6 °F 51% 29.63 in 10.0 mi West 12.7 mph 18.4 mph N/A   Clear
5:15 PM 53.6 °F - 35.6 °F 51% 29.63 in 10.0 mi West 13.8 mph - N/A   Clear
5:35 PM 53.6 °F - 35.6 °F 51% 29.64 in 10.0 mi WNW 8.1 mph 15.0 mph N/A   Clear
5:55 PM 51.8 °F - 35.6 °F 54% 29.64 in 10.0 mi WNW 8.1 mph - N/A   Clear
6:15 PM 50.0 °F - 35.6 °F 58% 29.64 in 10.0 mi WNW 4.6 mph - N/A   Clear
6:35 PM 50.0 °F - 35.6 °F 58% 29.65 in 10.0 mi WNW 4.6 mph - N/A   Clear
6:55 PM 48.2 °F - 35.6 °F 62% 29.65 in 10.0 mi NNW 3.5 mph - N/A   Clear
7:15 PM 44.6 °F - 35.6 °F 71% 29.66 in 10.0 mi Calm Calm - N/A   Clear
7:35 PM 42.8 °F - 35.6 °F 76% 29.65 in 10.0 mi Calm Calm - N/A   Clear
7:55 PM 41.0 °F - 35.6 °F 81% 29.66 in 10.0 mi Calm Calm - N/A   Clear
8:15 PM 41.0 °F 38.0 °F 35.6 °F 81% 29.66 in 10.0 mi South 4.6 mph - N/A   Clear
8:35 PM 41.0 °F 38.0 °F 37.4 °F 87% 29.66 in 10.0 mi South 4.6 mph - N/A   Clear
8:55 PM 41.0 °F 39.0 °F 35.6 °F 81% 29.67 in 10.0 mi SSW 3.5 mph - N/A   Clear
9:15 PM 39.2 °F 35.0 °F 35.6 °F 87% 29.66 in 10.0 mi South 5.8 mph - N/A   Clear
9:35 PM 39.2 °F 35.9 °F 35.6 °F 87% 29.66 in 10.0 mi SSW 4.6 mph - N/A   Clear
9:55 PM 41.0 °F 37.1 °F 35.6 °F 81% 29.67 in 10.0 mi SSW 5.8 mph - N/A   Clear
10:15 PM 39.2 °F 35.0 °F 35.6 °F 87% 29.67 in 10.0 mi SSW 5.8 mph - N/A   Clear
10:35 PM 37.4 °F 32.8 °F 35.6 °F 93% 29.67 in 10.0 mi SSW 5.8 mph - N/A   Clear
10:55 PM 37.4 °F 32.8 °F 35.6 °F 93% 29.67 in 10.0 mi SSW 5.8 mph - N/A   Clear
11:15 PM 35.6 °F 30.7 °F 35.6 °F 100% 29.68 in 10.0 mi South 5.8 mph - N/A   Clear
11:35 PM 35.6 °F 31.7 °F 35.6 °F 100% 29.67 in 10.0 mi South 4.6 mph - N/A   Clear
11:55 PM 35.6 °F 31.7 °F 35.6 °F 100% 29.67 in 10.0 mi SSW 4.6 mph - N/A   Clear